Location: eljas
(40.1958°N, 6.8661°W)
Time: 09:29:17
(UTC+01:00)

Daily predictions for brighter satellites

Satellite Brightness Start Highest point End
(mag) Time Altitude Azimuth Time Altitude Azimuth Time Altitude Azimuth
USA 32 4.2 18:30:56 10° SSE 18:35:57 51° E 18:41:01 10° NNE
YAOGAN 1 2.9 18:32:21 10° SE 18:36:27 43° ENE 18:40:34 10° N
Cosmos 2366 rocket 4.4 18:30:59 10° N 18:37:02 44° ENE 18:43:00 10° SSE
Ariane Rocket 4.4 18:32:24 10° S 18:37:13 43° W 18:42:02 10° NNW
BREEZE-M DEB (TANK) 3.8 18:30:33 10° WNW 18:38:07 74° SW 18:41:47 10° SE
Cosmos 1844 3.7 18:35:37 10° S 18:41:06 62° ESE 18:46:35 10° NNE
Cosmos 1536 3.4 18:37:13 10° NNW 18:41:16 64° W 18:45:18 10° S
Cosmos 2218 Rocket 4.1 18:35:16 10° N 18:41:26 54° E 18:47:28 10° SSE
CORIOLIS 4.3 18:36:16 10° SE 18:41:30 52° ENE 18:46:44 10° N
Cosmos 2181 Rocket 4.2 18:36:03 10° S 18:42:23 86° W 18:48:52 10° N
IDEFIX/ARIANE 42P 2.6 18:38:05 10° SSE 18:43:11 60° ENE 18:48:18 10° N
AQUARIUS 4.2 18:39:15 10° SSE 18:43:39 59° ENE 18:48:05 10° N
Cosmos 1812 3.3 18:41:53 10° SSE 18:45:27 37° E 18:49:03 10° NNE
Cosmos 494 Rocket 4.3 18:41:52 10° N 18:46:53 44° ENE 18:51:53 10° SE
Tiangong 1 3.1 18:46:15 10° S 18:48:15 16° SE 18:50:14 10° ESE
OPS 8737 4.4 18:45:17 10° SSW 18:48:38 56° ESE 18:51:33 11° NE
MSX 4.0 18:43:50 10° SE 18:49:19 48° ENE 18:54:48 10° N
COSMOS 2487 4.1 18:52:15 10° NNE 18:54:31 16° ENE 18:55:44 14° E
Cosmos 1346 Rocket 3.9 18:52:53 10° SE 18:55:59 23° E 18:58:32 13° NE
CZ-3B DEB 1.9 18:53:24 10° SW 18:56:44 87° SE 19:05:00 11° NE
Cosmos 2278 Rocket 2.4 18:52:19 10° S 18:57:45 51° ESE 19:03:13 10° NNE
Cosmos 1455 Rocket 3.1 18:53:27 10° N 18:57:47 55° E 19:02:08 10° SSE
SKYMED 2 4.4 18:54:41 10° NE 18:58:33 30° E 19:02:22 10° SSE
Thor Agena Rocket 3.6 18:55:28 10° NNE 19:00:42 88° WNW 19:05:58 10° SSW
ISS -1.9 18:58:47 10° W 19:01:44 30° NNW 19:04:10 13° NNE
BREEZE M DEB (TANK) 3.9 18:51:42 10° SW 19:02:30 47° SSE 19:05:16 17° E
Meteor 1-12 Rocket 4.3 18:57:53 10° N 19:03:37 59° ENE 19:09:24 10° SSE
ASTRO F (AKARI) 4.3 19:01:01 10° NNE 19:04:07 56° ESE 19:07:12 10° S
COSMOS 2406 4.3 19:00:01 10° NNW 19:05:33 50° WSW 19:11:03 10° S
SMAP 3.2 19:03:21 10° S 19:07:59 77° WSW 19:12:39 10° NNW
SL-24 DEB 4.4 19:04:47 10° NNE 19:09:27 53° E 19:14:02 10° S
Cosmos 1238 Rocket 2.0 19:06:31 10° S 19:09:28 86° WNW 19:12:28 10° N
CZ-2C R/B 2.8 19:06:32 10° S 19:11:28 72° WSW 19:16:35 10° NNW
Cosmos 2251 Rocket 3.5 19:06:50 10° NNW 19:12:14 86° ENE 19:17:32 10° SSE
CZ-4 R/B 2.7 19:10:12 10° S 19:14:13 45° W 19:18:13 10° NNW
COSMOS 2441 4.3 19:18:32 10° SSE 19:23:23 80° ENE 19:28:18 10° N
Cosmos 2082 Rocket 2.8 19:18:29 10° N 19:23:33 32° ENE 19:27:24 16° ESE
Cosmos 1975 2.7 19:20:02 10° N 19:24:07 71° E 19:28:08 10° SSE
Cosmos 1833 Rocket 3.5 19:20:43 10° N 19:25:36 29° ENE 19:27:33 24° E
Abrixas 4.2 19:26:46 10° NW 19:28:48 20° N 19:28:48 20° N
BREEZE-M R/B 4.3 19:21:28 10° WSW 19:32:43 82° NW 19:35:54 27° NE
OTV 4 3.3 19:31:40 10° WSW 19:33:21 14° SSW 19:35:02 10° S
Nadezhda 3 Rocket 4.0 19:27:55 10° S 19:33:58 61° E 19:40:08 10° NNE
SL-8 R/B 3.7 19:29:52 10° WSW 19:34:38 76° NNW 19:36:52 32° NE
Genesis I 3.3 19:33:24 10° NNW 19:37:14 49° NE 19:37:58 42° E
Cosmos 375 4.2 19:37:22 10° NNW 19:41:46 77° NE 19:43:55 25° SE
Cosmos 1484 Rocket 2.8 19:38:39 10° S 19:42:24 73° WSW 19:46:09 10° NNW
Meteor 2-14 Rocket 4.4 19:36:32 10° N 19:42:37 57° E 19:48:37 10° SSE
OE (NEXTSAT) 4.2 19:41:28 10° WSW 19:45:03 83° SSE 19:45:28 67° E
USA 234 4.3 19:41:50 16° NNE 19:46:30 38° NNW 19:52:24 10° W
CZ-3A R/B 4.5 19:40:32 10° W 19:46:34 47° N 20:04:42 20° ENE
COSMO-SKYMED 1 2.7 19:42:25 11° N 19:46:41 76° WNW 19:51:00 10° SSW
SL-24 R/B - RUBIN 2 4.4 19:41:56 10° SSW 19:48:09 74° ESE 19:51:57 27° NE
Meteor 2-4 Rocket 3.9 19:46:50 10° SSE 19:51:52 41° E 19:52:01 41° E
GEOS 3 Rocket 3.4 19:49:55 16° SE 19:54:05 77° NE 19:59:12 10° NNW
ATLAS 3B CENTAUR R/B 4.2 19:37:40 10° WSW 19:55:43 43° S 20:00:54 20° SE
Cosmos 1500 3.9 19:52:59 10° NNW 19:56:44 54° W 20:00:29 10° S
NOSS 3-4 (A) 4.3 19:52:28 10° NNW 19:58:49 36° NE 19:59:29 35° NE
NOSS 3-4 (C) 4.3 19:52:34 10° NNW 19:58:55 36° NE 19:59:33 35° NE
Meteor 1-28 Rocket 3.1 20:00:27 70° N 20:00:51 86° WNW 20:04:39 10° SSW
Meteor 2-21 Rocket 4.4 19:54:39 10° N 20:00:54 89° E 20:07:03 10° S
NOSS 3-3 (C) 4.5 19:58:55 10° SW 20:05:00 57° NW 20:09:09 23° NNE
Meteor 2-16 Rocket 4.3 19:59:07 10° N 20:05:13 79° E 20:11:18 10° S
ATLAS 2AS CENTAUR R/B 4.2 20:06:46 10° NW 20:14:07 42° WSW 20:20:59 10° S
FALCON 9 R/B 3.4 19:52:34 10° WSW 20:14:23 62° S 20:17:11 39° ESE
Cosmos 1025 Rocket 3.9 20:13:47 10° S 20:16:33 39° S 20:16:33 39° S
Cosmos 1371 Rocket 4.0 20:14:04 10° S 20:18:53 64° SE 20:18:53 64° SE
Tiangong 1 3.8 20:21:06 10° WSW 20:22:04 19° WSW 20:22:04 19° WSW
Cosmos 921 Rocket 3.4 20:19:59 10° SSW 20:23:59 59° W 20:23:59 59° W
Cosmos 2297 4.1 20:21:37 10° SW 20:27:12 61° WNW 20:29:08 39° N
COSMOS 2487 4.4 20:26:56 10° NW 20:30:00 30° W 20:30:00 30° W
Cosmos 1934 Rocket 3.8 20:26:20 10° N 20:32:33 88° E 20:38:50 10° S
Cosmos 2278 Rocket 4.2 20:37:38 10° WSW 20:42:07 24° NW 20:45:35 14° N
Cosmos 2082 Rocket 3.6 21:02:30 10° NW 21:07:37 36° WSW 21:09:29 28° SW
Cosmos 1833 Rocket 3.8 21:04:22 10° NW 21:09:24 40° W 21:09:24 40° W
BREEZE M DEB (TANK) 4.4 21:25:42 10° WNW 22:02:02 - SE 21:29:17 58° WNW
CZ-3B DEB 4.4 21:27:40 10° WNW 21:33:38 36° N 21:33:38 36° N
